#timestamp,LO_Frequency,Hit,StdDev 
1628240415.1,286046998.4,N
1628240416.0,286046998.4,N
1628240435.8,286046998.4,N
1628240455.7,286047000.5,N
1628240475.5,286047002.6,N
1628240495.3,286047002.1,N
1628240515.2,286047002.4,N
1628240535.0,286047000.6,N
1628240535.9,286047000.6,N
1628240555.7,286046998.2,N
1628240575.6,286047001.1,N
1628240595.4,286047000.7,N
1628240615.3,286047002.5,N
1628240635.1,286046999.9,N
1628240636.0,286046999.9,N
1628240655.8,286046998.1,N
1628240675.7,286046999.8,N
1628240695.5,286046999.7,N
1628240715.3,286047002.3,N
1628240735.2,286047002.7,N
1628240755.0,286047000.8,N
1628240755.9,286047000.8,N
1628240775.8,286047001.2,N
1628240795.6,286046999.0,N
1628240815.4,286046998.7,N
1628240835.3,286046998.5,N
1628240855.1,286046998.2,N
1628240875.8,286047000.3,N
1628240895.7,286047002.8,N
1628240915.5,286047002.8,N
1628240935.4,286046999.9,N
1628240955.2,286046998.6,N
1628240975.0,286046998.7,N
1628240975.9,286046998.7,N
1628240995.8,286046998.4,N
1628241015.6,286046999.3,N
1628241035.4,286046999.2,N
1628241055.3,286046997.2,N
1628241075.1,286046997.1,N
1628241095.9,286046999.2,N
1628241115.7,286046998.5,N
1628241135.5,286046999.8,N
1628241155.4,286047002.5,N
1628241175.2,286047002.7,N
1628241195.0,286047000.7,N
1628241195.9,286047000.7,N
1628241215.8,286046998.8,N
1628241235.6,286046999.2,N
1628241255.5,286046996.7,N
1628241275.3,286046996.8,N
1628241295.1,286046999.6,N
1628241315.9,286047000.8,N
1628241335.7,286047001.2,N
1628241355.5,286047000.8,N
1628241375.4,286047000.2,N
1628241395.2,286047000.4,N
1628241415.1,286047002.0,N
1628241416.0,286047002.0,N
1628241435.8,286047002.3,N
1628241455.6,286047002.5,N
1628241475.5,286047001.4,N
1628241495.3,286047001.4,N
1628241515.1,286047001.7,N
1628241535.9,286046999.9,N
1628241555.7,286047000.1,N
1628241575.6,286047002.1,N
1628241595.4,286047004.1,N
1628241615.2,286047003.0,N
1628241635.1,286047003.3,N
1628241636.0,286047003.3,N
1628241655.8,286047006.0,Y
1628241675.7,286047003.4,P
1628241695.5,286047003.4,N
1628241715.3,286047003.7,P
1628241735.2,286047004.3,Y
1628241755.0,286046998.6,P
1628241755.9,286046998.6,N
1628241775.7,286046998.9,N
1628241795.6,286046997.2,N
1628241815.4,286046997.3,N
1628241835.3,286046994.9,N
1628241855.1,286046997.3,N
1628241856.0,286046997.3,N
1628241875.8,286046999.0,N
1628241895.7,286046998.8,N
1628241915.5,286046998.9,N
1628241935.3,286046999.4,N
1628241955.2,286046998.8,N
1628241975.0,286046998.1,N
1628241975.9,286046998.1,N
1628241995.8,286046996.5,N
1628242015.6,286046998.7,N
1628242035.4,286046998.6,N
1628242055.3,286046998.4,N
1628242075.1,286047001.2,N
1628242095.8,286047000.7,N
1628242115.7,286047000.5,N
1628242135.5,286046999.8,N
1628242155.4,286047000.5,N
1628242175.2,286047000.0,N
1628242195.0,286047000.9,N
1628242195.9,286047000.9,N
1628242215.8,286047001.2,N
1628242235.6,286047000.5,N
1628242255.4,286046998.6,N
1628242275.3,286047000.5,N
1628242295.1,286047000.2,N
1628242315.9,286047002.1,N
1628242335.7,286047002.7,N
1628242355.5,286047001.3,N
1628242375.4,286047002.8,N
1628242395.2,286046999.8,N
1628242415.0,286047001.8,N
1628242415.9,286047001.8,N
1628242435.8,286047001.4,N
1628242455.6,286047001.4,N
1628242475.5,286047003.9,N
1628242495.3,286047004.4,N
1628242515.1,286047000.1,N
1628242535.9,286047002.0,N
1628242555.7,286047002.6,N
1628242575.5,286047000.6,N
1628242595.4,286046999.4,N
1628242615.2,286046996.7,N
1628242635.0,286046996.8,N
1628242636.0,286046996.8,N
1628242655.8,286046997.1,N
1628242675.6,286046997.5,N
1628242695.5,286046997.4,N
1628242715.3,286046996.5,N
1628242735.1,286046997.2,N
1628242755.9,286046997.5,N
1628242775.7,286046997.5,N
1628242795.5,286046996.1,N
1628242815.4,286046996.3,N
1628242835.2,286046993.3,N
1628242855.1,286046995.9,N
1628242856.0,286046995.9,N
1628242875.8,286046997.7,N
1628242895.6,286046997.0,N
1628242915.5,286046999.4,N
1628242935.3,286046996.5,N
1628242955.2,286046997.1,N
1628242975.9,286046996.8,N
1628242995.7,286046997.7,N
1628243015.6,286046995.0,N
1628243035.4,286046995.4,N
1628243055.2,286046996.4,N
1628243075.1,286046995.2,N
1628243076.0,286046995.2,N
1628243095.8,286046994.9,N
1628243115.6,286046995.8,N
1628243135.5,286046995.5,Y
1628243155.3,286046999.3,P
1628243175.2,286046998.3,N
1628243195.0,286046999.8,N
1628243195.9,286046999.8,N
1628243215.8,286047000.1,N
1628243235.6,286047001.4,N
1628243255.4,286047001.4,N
1628243275.3,286047002.2,N
1628243295.1,286047002.1,N
1628243296.0,286047002.1,N
1628243315.8,286047001.8,N
1628243335.7,286047001.5,N
1628243355.5,286046999.9,N
1628243375.3,286047002.6,N
1628243395.2,286047001.4,N
1628243415.0,286047002.2,N
1628243415.9,286047002.2,N
1628243435.8,286047002.6,N
1628243455.6,286047004.0,N
1628243475.4,286047001.9,N
1628243495.3,286047002.6,N
1628243515.1,286047001.9,N
1628243535.9,286047002.1,N
1628243555.7,286047002.7,N
1628243575.5,286047002.4,N
1628243595.4,286047002.6,N
1628243615.2,286047002.4,N
1628243635.0,286047002.5,N
1628243635.9,286047002.5,N
1628243655.8,286047001.9,N
1628243675.6,286046999.7,N
1628243695.4,286047002.8,N
1628243715.3,286047002.3,N
1628243735.1,286047002.2,N
1628243755.9,286047002.1,N
1628243775.7,286047002.7,Y
1628243795.5,286047000.9,P
1628243815.4,286047000.2,N
1628243835.2,286047000.3,N
1628243855.1,286047002.4,Y
1628243856.0,286047002.4,P
1628243875.8,286047000.0,N
1628243895.6,286047001.0,N
1628243915.5,286046998.1,N
1628243935.3,286046999.7,N
1628243955.1,286047000.6,N
1628243975.9,286046999.7,N
1628243995.7,286047002.3,N
